Weather History for Gallup, NM

Change the Weather History Date:

Thursday, October 4, 2012

  Actual Average Record
Temperature  
Mean Temperature 58 °F -  
Max Temperature 78 °F 71 °F 85 °F (1980)
Min Temperature 39 °F 34 °F 24 °F (2002)
Degree Days  
Heating Degree Days 7    
Growing Degree Days 8 (Base 50)    
Moisture  
Dew Point 24 °F    
Average Humidity 26    
Maximum Humidity 49    
Minimum Humidity 14    
Precipitation  
Precipitation 0.00 in - - ()
Sea Level Pressure  
Sea Level Pressure 29.88 in    
Wind  
Wind Speed 10 mph (SW)    
Max Wind Speed 25 mph    
Max Gust Speed 33 mph    
Visibility 10 miles    
Events      
Averages and records for this station are not official NWS values.
T = Trace of Precipitation, MM = Missing Value Source: NWS Daily Summary

Daily Weather History Graph

Daily Weather History Graph

Search for Another Location

Airport:

Trip Planner

Search our weather history database for the weather conditions in past years. The results will help you decide how hot, cold, wet, or windy it might be!

Date:

Astronomy

Oct. 04, 2012 Rise Set
Actual Time 7:12 AM MDT 6:53 PM MDT
Civil Twilight 6:47 AM MDT 7:19 PM MDT
Nautical Twilight 6:17 AM MDT 7:48 PM MDT
Astronomical Twilight 5:48 AM MDT 8:18 PM MDT
Moon 9:41 PM MDT (10/4) 11:23 AM MDT (10/4)
Length of Visible Light 12h 31m
Length of Day
11h 41m
Waning Gibbous, 81% of the Moon is Illuminated
Oct 4
Waning Gibbous
Oct 8
Last Quarter
Oct 15
New
Oct 21
First Quarter
Oct 29
Full

Hourly Weather History & Observations

Time (MDT) Temp. Windchill Dew Point Humidity Pressure Visibility Wind Dir Wind Speed Gust Speed Precip Events Conditions
12:53 AM 61.0 °F - 24.1 °F 24% 29.78 in 10.0 mi SSW 11.5 mph - N/A   Clear
1:53 AM 59.0 °F - 25.0 °F 27% 29.80 in 10.0 mi SW 11.5 mph - N/A   Clear
2:53 AM 51.1 °F - 23.0 °F 33% 29.84 in 10.0 mi East 3.5 mph - N/A   Clear
3:53 AM 45.0 °F 43.5 °F 19.9 °F 37% 29.88 in 10.0 mi NE 3.5 mph - N/A   Clear
4:53 AM 46.9 °F - 23.0 °F 39% 29.89 in 10.0 mi ENE 6.9 mph - N/A   Clear
5:53 AM 41.0 °F 39.0 °F 21.0 °F 45% 29.95 in 10.0 mi East 3.5 mph - N/A   Clear
6:53 AM 39.0 °F 36.8 °F 21.0 °F 49% 30.01 in 10.0 mi ENE 3.5 mph - N/A   Clear
7:53 AM 43.0 °F - 24.1 °F 47% 30.04 in 10.0 mi Calm Calm - N/A   Clear
8:53 AM 57.0 °F - 27.0 °F 32% 29.98 in 10.0 mi Calm Calm - N/A   Clear
9:53 AM 64.9 °F - 30.0 °F 27% 29.91 in 10.0 mi WSW 6.9 mph - N/A   Clear
10:53 AM 70.0 °F - 30.0 °F 23% 29.90 in 10.0 mi West 13.8 mph - N/A   Clear
11:53 AM 73.0 °F - 28.0 °F 19% 29.87 in 10.0 mi West 13.8 mph 26.5 mph N/A   Clear
12:53 PM 73.9 °F - 27.0 °F 18% 29.84 in 10.0 mi WSW 18.4 mph 29.9 mph N/A   Clear
1:53 PM 75.9 °F - 25.0 °F 15% 29.81 in 10.0 mi SW 21.9 mph 33.4 mph N/A   Clear
2:53 PM 77.0 °F - 24.1 °F 14% 29.84 in 10.0 mi SW 25.3 mph 33.4 mph N/A   Clear
4:53 PM 75.0 °F - 21.9 °F 14% 29.84 in 10.0 mi WSW 20.7 mph 28.8 mph N/A   Clear
5:53 PM 73.9 °F - 21.0 °F 14% 29.88 in 10.0 mi West 19.6 mph 26.5 mph N/A   Clear
6:53 PM 70.0 °F - 21.9 °F 16% 29.92 in 10.0 mi WSW 11.5 mph - N/A   Clear
7:53 PM 69.1 °F - 23.0 °F 18% 29.91 in 10.0 mi WSW 15.0 mph 20.7 mph N/A   Clear
8:53 PM 66.0 °F - 23.0 °F 20% 29.83 in 10.0 mi SW 10.4 mph - N/A   Clear
9:53 PM 64.0 °F - 23.0 °F 21% 29.81 in 10.0 mi SSW 8.1 mph - N/A   Clear
10:53 PM 61.0 °F - 23.0 °F 23% 29.82 in 10.0 mi SSW 8.1 mph - N/A   Clear
11:53 PM 59.0 °F - 25.0 °F 27% 29.82 in 10.0 mi SW 8.1 mph - N/A   Clear